EW5186 Weather Reports


time (UTC)temp
C
wind
direction
speed
KPH
gust
KPH
rain 1hr
cm
rain 24hr
cm
rain mn
cm
humidity
%
barometer
mb
20260504081541 3 109 0.0 0.0 0.00 0.00 0.00 78 1013.9
20260504050015 3 107 0.0 0.0 0.00 0.00 0.00 76 1013.4
20260504044512 3 107 0.0 0.0 0.00 0.00 0.00 76 1013.5
20260504043057 3 185 0.0 0.0 0.00 0.00 0.00 74 1013.4
20260504041551 3 185 0.0 0.0 0.00 0.00 0.00 74 1013.4
20260504040029 3 185 0.0 0.0 0.00 0.00 0.00 73 1013.3
20260504034529 3 185 0.0 0.0 0.00 0.00 0.00 74 1013.3
20260504033011 4 185 0.0 0.0 0.00 0.00 0.00 72 1013.3
20260504031510 4 185 0.0 0.0 0.00 0.00 0.00 72 1013.1
20260504030052 4 250 0.0 0.0 0.00 0.00 0.00 71 1013.0
20260504024652 4 250 0.0 0.0 0.00 0.00 0.00 72 1013.1
20260504023034 5 250 0.0 0.0 0.00 0.00 0.00 71 1013.1
20260504021531 5 251 0.0 0.0 0.00 0.00 0.00 69 1013.1
20260504020013 5 251 0.0 0.0 0.00 0.00 0.00 68 1013.1
20260504014518 5 251 0.0 0.0 0.00 0.00 0.00 65 1012.9
20260504013110 6 251 0.0 0.0 0.00 0.00 0.00 65 1012.7
20260504011552 6 251 0.0 0.0 0.00 0.00 0.00 64 1012.6
20260504010037 6 251 0.0 0.0 0.00 0.00 0.00 65 1012.5
20260504004543 6 251 0.0 0.0 0.00 0.00 0.00 61 1012.2
20260504003021 6 251 0.0 0.0 0.00 0.00 0.00 60 1012.1
20260504001521 7 251 0.0 0.0 0.00 0.00 0.00 59 1011.8
20260504000020 8 251 0.0 0.0 0.00 0.00 0.00 54 1011.5
20260503234521 9 251 0.0 0.0 0.00 0.00 0.00 47 1011.3
20260503233022 10 251 0.0 0.0 0.00 0.00 0.00 45 1011.2
20260503231520 11 63 0.0 6.4 0.00 0.00 0.00 40 1011.1
20260503230017 12 350 0.0 0.0 0.00 0.00 0.00 40 1011.0
20260503224517 12 358 0.0 14.5 0.00 0.00 0.00 38 1010.9
20260503223116 13 179 0.0 14.5 0.00 0.00 0.00 39 1010.9
20260503221604 13 2 1.6 14.5 0.00 0.00 0.00 37 1010.8
20260503220059 13 245 3.2 20.9 0.00 0.00 0.00 36 1010.9
20260503214540 13 311 1.6 17.7 0.00 0.00 0.00 36 1010.8
20260503213040 13 226 4.8 16.1 0.00 0.00 0.00 38 1010.8
20260503211522 13 158 3.2 11.3 0.00 0.00 0.00 37 1010.8
20260503210020 12 278 1.6 17.7 0.00 0.00 0.00 39 1010.8
20260503204509 12 332 4.8 14.5 0.00 0.00 0.00 39 1010.7
20260503203025 13 23 6.4 20.9 0.00 0.00 0.00 38 1010.6
20260503201508 13 286 4.8 20.9 0.00 0.00 0.00 41 1010.6
20260503200008 13 243 1.6 24.1 0.00 0.00 0.00 40 1010.6
20260503194505 12 293 3.2 19.3 0.00 0.00 0.00 44 1010.7
20260503193005 11 290 1.6 25.7 0.00 0.00 0.00 44 1010.6
20260503191504 12 316 4.8 16.1 0.00 0.00 0.00 41 1010.6
20260503190004 13 184 1.6 22.5 0.00 0.00 0.00 43 1010.4
20260503184605 13 297 3.2 14.5 0.00 0.00 0.00 42 1010.4
20260503183102 12 189 4.8 12.9 0.00 0.00 0.00 41 1010.4
20260503181539 11 301 4.8 16.1 0.00 0.00 0.00 41 1010.5
20260503180037 12 338 3.2 16.1 0.00 0.00 0.00 47 1010.6
20260503174518 11 21 4.8 12.9 0.00 0.00 0.00 47 1010.8
20260503173019 11 298 6.4 0.0 0.00 0.00 0.00 51 1010.9
20260503171605 11 301 4.8 14.5 0.00 0.00 0.00 50 1011.1